Regional Weather Roundup
Issued by NWS

Home | Current Version | Previous Version | Graphics & Text | Print | Product List | Glossary On
Versions: 1 2 3 4 5 6 7 8 9 10 11 12 13 14 15 16 17 18 19 20 21 22 23 24 25 26 27 28 29 30 31 32 33 34 35 36 37 38 39 40 41 42 43 44 45 46 47 48 49 50
000
ASUS43 KLMK 271310
RWRKY
KENTUCKY REGIONAL WEATHER ROUNDUP
NATIONAL WEATHER SERVICE LOUISVILLE KY
800 AM EST TUE JAN 27 2015

NOTE "FAIR" INDICATES FEW OR NO CLOUDS BELOW 12,000 FEET
WITH NO SIGNIFICANT WEATHER AND/OR OBSTRUCTIONS TO VISIBILITY.

KYZ001>023-026-027-061>063-070>075-271400-
WESTERN AND SOUTH CENTRAL KENTUCKY

CITY           SKY/WX    TMP DP  RH WIND       PRES   REMARKS
PADUCAH        CLEAR     34  30  85 NW5       30.02R WCI  30
HENDERSON      CLOUDY    32  28  86 NW5       30.01R WCI  27
OWENSBORO      CLOUDY    31  31 100 CALM      30.01R FOG
HOPKINSVILLE   MOCLDY    34  32  93 NW8       29.99R WCI  27
BOWLING GREEN  CLOUDY    33  30  88 CALM      29.98R FOG
GLASGOW        CLOUDY    32  32 100 CALM      29.96R FOG
$$

KYZ024-025-028>034-038-045-046-053-271400-
NORTH CENTRAL KENTUCKY

CITY           SKY/WX    TMP DP  RH WIND       PRES   REMARKS
LOUISVILLE/SDF LGT SNOW  30  27  88 N6        29.99R FOG     WCI  24
LOUISVILLE/LOU CLOUDY    30  26  85 NE3       30.00R
FORT KNOX      CLOUDY    28  27  93 NW2       29.97R
$$

KYZ035>037-039>044-047>052-055>060-089>105-271400-
NORTHEAST KENTUCKY

CITY           SKY/WX    TMP DP  RH WIND       PRES   REMARKS
LEXINGTON      CLOUDY    26  23  88 NE10      29.97R FOG     WCI  16
COVINGTON      CLOUDY    19  12  73 NE7       30.00R WCI  10
FRANKFORT      CLOUDY    27  24  89 NE8       29.97R WCI  19
$$

KYZ054-064>069-076>088-106>120-271400-
SOUTHEAST KENTUCKY

CITY           SKY/WX    TMP DP  RH WIND       PRES   REMARKS
JACKSON        CLOUDY    26  22  84 CALM      29.92R
LONDON         LGT SNOW  30  25  81 N3        29.93R
SOMERSET       CLOUDY    30  30 100 CALM      29.96R
MIDDLESBORO    CLOUDY    31  27  87 CALM      29.92R
MONTICELLO     CLOUDY    31  30  96 CALM      29.97R
$$




USA.gov is the U.S. government's official web portal to all federal, state and local government web resources and services.